Regional Weather Roundup
Issued by NWS Little Rock, AR

Home | Current Version | Previous Version | Graphics & Text | Print | Product List | Glossary On
Versions: 1 2 3 4 5 6 7 8 9 10 11 12 13 14 15 16 17 18 19 20 21 22 23 24 25 26 27 28 29 30 31 32 33 34 35 36 37 38 39 40 41 42 43 44 45 46 47 48 49 50
000
ASUS44 KLZK 220005
RWRLZK

WEATHER ROUNDUP FOR ARKANSAS
NATIONAL WEATHER SERVICE LITTLE ROCK AR
700 PM CDT THU MAY 21 2015

NOTE: "FAIR" INDICATES FEW OR NO CLOUDS BELOW 12,000 FEET WITH NO
SIGNIFICANT WEATHER AND/OR OBSTRUCTIONS TO VISIBILITY.

ARZ001-003-010-029-220100-
NORTHWEST ARKANSAS

CITY           SKY/WX    TMP DP  RH WIND       PRES   REMARKS
FAYETTEVILLE   MOSUNNY   62  47  57 NE3       30.20S
6HR MIN TEMP:  57; 6HR MAX TEMP:  63;

FORT SMITH     SUNNY     68  47  46 SE3       30.16S
6HR MIN TEMP:  62; 6HR MAX TEMP:  70;

HARRISON       MOSUNNY   61  45  55 NE6       30.20F
6HR MIN TEMP:  57; 6HR MAX TEMP:  63;

BENTONVILLE    MOSUNNY   61  45  55 NE7       30.20S
ROGERS         MOSUNNY   61  46  57 N7        30.21F
6HR MIN TEMP:  56; 6HR MAX TEMP:  62; 6HR PCP:  0.01;

SILOAM SPGS    SUNNY     61  45  55 NE6       30.21S
6HR MIN TEMP:  57; 6HR MAX TEMP:  63;

HIGHFILL       SUNNY     63  46  54 NE6       30.20F
6HR MIN TEMP:  58; 6HR MAX TEMP:  64;

SPRINGDALE     MOSUNNY   61  46  59 NE9       30.22F
$$

ARZ004-005-016-220100-
NORTH CENTRAL ARKANSAS

CITY           SKY/WX    TMP DP  RH WIND       PRES   REMARKS
BATESVILLE     SUNNY     64  46  52 NW3       30.18S
6HR MIN TEMP:  59; 6HR MAX TEMP:  64;

FLIPPIN        SUNNY     64  46  52 N3        30.18R
6HR MIN TEMP:  59; 6HR MAX TEMP:  64;

MTN HOME       SUNNY     63  45  51 VRB5      30.18F
6HR MIN TEMP:  59; 6HR MAX TEMP:  65;

$$

ARZ040-041-220100-
WEST CENTRAL ARKANSAS

CITY           SKY/WX    TMP DP  RH WIND       PRES   REMARKS
MENA           SUNNY     68  52  56 N6        30.16S
MOUNT IDA      SUNNY     67  51  56 CALM      30.14F
6HR MIN TEMP:  58; 6HR MAX TEMP:  69;

$$

ARZ009-017-025-026-028-220100-
NORTHEAST ARKANSAS

CITY           SKY/WX    TMP DP  RH WIND       PRES   REMARKS
CORNING          N/A     61  46  59 NE10      30.19S
JONESBORO      MOSUNNY   58  48  69 NE6       30.19S
6HR MIN TEMP:  52; 6HR MAX TEMP:  62;

NEWPORT        SUNNY     63  51  64 E9        30.20R
6HR MIN TEMP:  57; 6HR MAX TEMP:  64;

WALNUT RIDGE   SUNNY     63  46  55 N7        30.19R
6HR MIN TEMP:  55; 6HR MAX TEMP:  64;

BLYTHEVILLE    CLOUDY    58  47  66 N8        30.20S
6HR MIN TEMP:  53; 6HR MAX TEMP:  59;

$$

ARZ022-023-033-042-044-220100-
CENTRAL ARKANSAS

CITY           SKY/WX    TMP DP  RH WIND       PRES   REMARKS
LITTLE ROCK    MOSUNNY   66  48  52 E10       30.18R
6HR MIN TEMP:  61; 6HR MAX TEMP:  68;

N LITTLE ROCK  MOSUNNY   65  53  65 NE7       30.18R
6HR MIN TEMP:  60; 6HR MAX TEMP:  67;

JACKSONVILLE   PTSUNNY   67  49  53 NE6       30.17R
6HR MIN TEMP:  61; 6HR MAX TEMP:  67;

SEARCY         MOSUNNY   64  49  57 NE8       30.20R
6HR MIN TEMP:  59; 6HR MAX TEMP:  66;

HOT SPRINGS    SUNNY     66  50  56 NE6       30.16S
6HR MIN TEMP:  59; 6HR MAX TEMP:  68;

RUSSELLVILLE   SUNNY     68  47  46 NE7       30.17R
6HR MIN TEMP:  63; 6HR MAX TEMP:  70;

CLINTON        FAIR      64  48  55 CALM      30.20R
$$

ARZ036-220100-
EAST ARKANSAS

CITY           SKY/WX    TMP DP  RH WIND       PRES   REMARKS
WEST MEMPHIS   CLOUDY    56  48  74 NE8       30.20R
6HR MIN TEMP:  53; 6HR MAX TEMP:  57;

$$

ARZ050-053-066-070-073-220100-
SOUTHWEST ARKANSAS

CITY           SKY/WX    TMP DP  RH WIND       PRES   REMARKS
ARKADELPHIA    FAIR      67  55  65 VRB7      30.17S
6HR MIN TEMP:  62; 6HR MAX TEMP:  68;

CAMDEN         CLOUDY    63  54  72 N5        30.17R
TEXARKANA      CLOUDY    62  55  77 NE7       30.16S
6HR MIN TEMP:  58; 6HR MAX TEMP:  64; 6HR PCP:  0.03;

EL DORADO      CLOUDY    60  54  80 NE6       30.17R
6HR MIN TEMP:  58; 6HR MAX TEMP:  62; 6HR PCP:  0.09;

DE QUEEN       MOSUNNY   68  56  65 SE8       30.13F
6HR MIN TEMP:  62; 6HR MAX TEMP:  71;

$$

ARZ056-057-069-220100-
SOUTHEAST ARKANSAS

CITY           SKY/WX    TMP DP  RH WIND       PRES   REMARKS
PINE BLUFF     MOSUNNY   61  50  67 NE10      30.18S
6HR MIN TEMP:  58; 6HR MAX TEMP:  63;

STUTTGART      MOSUNNY   61  48  63 NE10      30.20R
6HR MIN TEMP:  57; 6HR MAX TEMP:  63;

MONTICELLO     CLOUDY    60  50  69 NE9       30.17F
6HR MIN TEMP:  57; 6HR MAX TEMP:  62;


$$




USA.gov is the U.S. government's official web portal to all federal, state and local government web resources and services.